| time (UTC) | temp F | wind direction | speed knots | gust knots | rain 1hr in | rain 24hr in | rain mn in | humidity % | barometer mb |
| 20260505180046 | 64 | 213 | 2.6 | 4.3 | 0.00 | 0.31 | 0.00 | 77 | 1010.4 |
| 20260505174503 | 64 | 227 | 1.7 | 5.2 | 0.00 | 0.31 | 0.00 | 76 | 1010.2 |
| 20260505173035 | 64 | 252 | 2.6 | 5.2 | 0.00 | 0.32 | 0.00 | 75 | 1010.3 |
| 20260505171553 | 65 | 225 | 3.5 | 5.2 | 0.00 | 0.32 | 0.00 | 74 | 1010.6 |
| 20260505170020 | 66 | 234 | 3.5 | 7.0 | 0.00 | 0.32 | 0.00 | 74 | 1010.5 |
| 20260505164538 | 67 | 212 | 4.3 | 7.8 | 0.00 | 0.32 | 0.00 | 72 | 1010.5 |
| 20260505163008 | 67 | 234 | 2.6 | 7.0 | 0.00 | 0.32 | 0.00 | 70 | 1010.6 |
| 20260505161504 | 68 | 208 | 3.5 | 6.1 | 0.00 | 0.32 | 0.00 | 67 | 1010.4 |
| 20260505153021 | 67 | 248 | 2.6 | 6.1 | 0.00 | 0.33 | 0.00 | 72 | 1010.8 |
| 20260505151541 | 67 | 234 | 2.6 | 6.1 | 0.00 | 0.33 | 0.00 | 72 | 1010.8 |
| 20260505124530 | 67 | 231 | 3.5 | 7.0 | 0.00 | 0.33 | 0.00 | 74 | 1011.3 |
| 20260505123108 | 67 | 224 | 4.3 | 7.8 | 0.00 | 0.33 | 0.00 | 74 | 1011.5 |
| 20260505121515 | 66 | 210 | 4.3 | 7.8 | 0.00 | 0.33 | 0.00 | 76 | 1011.5 |
| 20260505120053 | 66 | 234 | 6.1 | 10.4 | 0.00 | 0.33 | 0.00 | 76 | 1011.6 |
| 20260505114501 | 67 | 206 | 5.2 | 7.8 | 0.00 | 0.33 | 0.00 | 75 | 1011.5 |
| 20260505113031 | 66 | 205 | 3.5 | 7.0 | 0.00 | 0.33 | 0.00 | 78 | 1011.6 |
| 20260505111550 | 65 | 296 | 4.3 | 7.0 | 0.00 | 0.33 | 0.00 | 78 | 1011.7 |
| 20260505101523 | 63 | 243 | 4.3 | 8.7 | 0.00 | 0.33 | 0.00 | 82 | 1011.7 |
| 20260505100054 | 63 | 284 | 3.5 | 7.8 | 0.00 | 0.33 | 0.00 | 84 | 1011.8 |
| 20260505094507 | 63 | 232 | 5.2 | 7.0 | 0.00 | 0.33 | 0.00 | 85 | 1011.9 |
| 20260505093037 | 63 | 244 | 5.2 | 7.8 | 0.00 | 0.33 | 0.00 | 86 | 1011.8 |
| 20260505091536 | 63 | 223 | 6.1 | 9.6 | 0.00 | 0.33 | 0.00 | 88 | 1011.6 |
| 20260505090005 | 62 | 223 | 5.2 | 10.4 | 0.00 | 0.33 | 0.00 | 90 | 1011.7 |
| 20260505084522 | 62 | 229 | 3.5 | 7.8 | 0.00 | 0.33 | 0.00 | 91 | 1011.6 |
| 20260505083050 | 61 | 234 | 4.3 | 8.7 | 0.00 | 0.33 | 0.00 | 92 | 1011.3 |
| 20260505081508 | 61 | 244 | 3.5 | 7.0 | 0.00 | 0.33 | 0.00 | 92 | 1011.2 |
| 20260505080039 | 60 | 275 | 3.5 | 7.8 | 0.00 | 0.33 | 0.00 | 92 | 1011.2 |
| 20260505074531 | 61 | 293 | 2.6 | 8.7 | 0.00 | 0.33 | 0.00 | 92 | 1011.0 |
| 20260505073102 | 61 | 116 | 2.6 | 7.8 | 0.00 | 0.34 | 0.00 | 92 | 1010.7 |
| 20260505071539 | 61 | 149 | 0.9 | 4.3 | 0.00 | 0.34 | 0.00 | 92 | 1010.9 |
| 20260505070053 | 60 | 120 | 0.0 | 4.3 | 0.00 | 0.34 | 0.00 | 93 | 1010.9 |
| 20260505064511 | 59 | 78 | 1.7 | 7.0 | 0.00 | 0.34 | 0.00 | 93 | 1010.7 |
| 20260505063035 | 59 | 86 | 2.6 | 6.1 | 0.00 | 0.37 | 0.00 | 93 | 1010.6 |
| 20260505061558 | 58 | 86 | 1.7 | 6.1 | 0.00 | 0.37 | 0.00 | 92 | 1010.6 |
| 20260505060021 | 58 | 72 | 1.7 | 5.2 | 0.00 | 0.37 | 0.00 | 92 | 1010.5 |
| 20260505054552 | 58 | 73 | 3.5 | 8.7 | 0.00 | 0.37 | 0.00 | 92 | 1010.6 |
| 20260505053012 | 58 | 57 | 0.9 | 7.8 | 0.00 | 0.40 | 0.00 | 92 | 1010.4 |
| 20260505051536 | 58 | 89 | 2.6 | 8.7 | 0.00 | 0.40 | 0.00 | 92 | 1010.2 |
| 20260505041542 | 57 | 118 | 1.7 | 6.1 | 0.00 | 0.43 | 0.00 | 92 | 1010.0 |
| 20260505040010 | 57 | 105 | 2.6 | 7.8 | 0.00 | 0.43 | 0.00 | 92 | 1009.7 |
| 20260505034528 | 57 | 133 | 0.9 | 6.1 | 0.00 | 0.43 | 0.00 | 92 | 1009.7 |
| 20260505033100 | 57 | 86 | 2.6 | 7.0 | 0.00 | 0.43 | 0.00 | 92 | 1009.6 |
| 20260505031558 | 57 | 50 | 0.9 | 11.3 | 0.00 | 0.43 | 0.00 | 92 | 1009.8 |
| 20260505030027 | 57 | 104 | 2.6 | 9.6 | 0.00 | 0.43 | 0.00 | 92 | 1010.0 |
| 20260505024545 | 57 | 71 | 5.2 | 8.7 | 0.01 | 0.43 | 0.00 | 92 | 1010.0 |
| 20260505023010 | 57 | 148 | 1.7 | 6.1 | 0.10 | 0.43 | 0.43 | 92 | 1010.3 |
| 20260505021528 | 57 | 75 | 5.2 | 8.7 | 0.10 | 0.43 | 0.43 | 92 | 1010.2 |
| 20260505020104 | 57 | 148 | 2.6 | 8.7 | 0.10 | 0.43 | 0.43 | 92 | 1010.0 |
| 20260505014515 | 57 | 73 | 2.6 | 9.6 | 0.09 | 0.43 | 0.43 | 92 | 1010.2 |
| 20260505013044 | 57 | 75 | 2.6 | 8.7 | 0.00 | 0.33 | 0.33 | 92 | 1010.0 |
| 20260505011552 | 57 | 126 | 3.5 | 9.6 | 0.00 | 0.33 | 0.33 | 92 | 1010.1 |
| 20260505010016 | 56 | 109 | 2.6 | 7.8 | 0.00 | 0.33 | 0.33 | 91 | 1010.4 |
| 20260505004536 | 57 | 124 | 2.6 | 12.2 | 0.00 | 0.33 | 0.33 | 91 | 1010.6 |
| 20260505003003 | 57 | 80 | 5.2 | 13.0 | 0.02 | 0.33 | 0.33 | 91 | 1010.9 |
| 20260505001522 | 57 | 112 | 3.5 | 9.6 | 0.03 | 0.33 | 0.33 | 91 | 1010.8 |
| 20260504234510 | 57 | 128 | 2.6 | 12.2 | 0.08 | 0.33 | 0.33 | 91 | 1011.3 |
| 20260504233043 | 57 | 80 | 7.0 | 18.2 | 0.07 | 0.31 | 0.31 | 90 | 1011.0 |
| 20260504231559 | 58 | 103 | 3.5 | 11.3 | 0.11 | 0.30 | 0.30 | 90 | 1011.1 |
| 20260504230028 | 58 | 53 | 5.2 | 19.1 | 0.15 | 0.28 | 0.28 | 89 | 1010.9 |
| 20260504224526 | 58 | 288 | 5.2 | 19.1 | 0.13 | 0.25 | 0.25 | 89 | 1010.9 |
| 20260504223056 | 58 | 71 | 6.1 | 13.9 | 0.13 | 0.24 | 0.24 | 88 | 1011.1 |
| 20260504221516 | 58 | 94 | 6.1 | 15.6 | 0.06 | 0.18 | 0.18 | 86 | 1011.5 |
| 20260504220053 | 59 | 73 | 5.2 | 13.0 | 0.01 | 0.13 | 0.13 | 84 | 1011.8 |
| 20260504214549 | 59 | 75 | 5.2 | 13.0 | 0.00 | 0.12 | 0.12 | 83 | 1011.5 |
| 20260504213009 | 59 | 94 | 8.7 | 20.0 | 0.00 | 0.12 | 0.12 | 83 | 1012.1 |
| 20260504211506 | 59 | 146 | 4.3 | 16.5 | 0.00 | 0.12 | 0.12 | 83 | 1012.2 |
| 20260504210036 | 59 | 73 | 7.0 | 15.6 | 0.00 | 0.12 | 0.12 | 82 | 1012.1 |
| 20260504204533 | 59 | 138 | 4.3 | 18.2 | 0.00 | 0.12 | 0.12 | 81 | 1012.1 |
| 20260504203005 | 59 | 82 | 5.2 | 14.8 | 0.00 | 0.12 | 0.12 | 80 | 1012.0 |
| 20260504201520 | 59 | 73 | 4.3 | 13.9 | 0.00 | 0.12 | 0.12 | 79 | 1012.3 |
| 20260504200055 | 60 | 61 | 5.2 | 13.9 | 0.00 | 0.12 | 0.12 | 78 | 1012.5 |
| 20260504194506 | 60 | 109 | 5.2 | 14.8 | 0.00 | 0.12 | 0.12 | 76 | 1012.8 |
| 20260504193035 | 60 | 121 | 7.0 | 13.9 | 0.00 | 0.12 | 0.12 | 76 | 1012.7 |
| 20260504191558 | 59 | 82 | 6.1 | 15.6 | 0.00 | 0.12 | 0.12 | 76 | 1012.4 |
| 20260504190022 | 59 | 96 | 4.3 | 12.2 | 0.00 | 0.12 | 0.12 | 77 | 1012.4 |
| 20260504184552 | 59 | 109 | 6.1 | 13.0 | 0.00 | 0.12 | 0.12 | 78 | 1012.3 |
| 20260504183010 | 59 | 109 | 6.1 | 14.8 | 0.00 | 0.12 | 0.12 | 79 | 1012.5 |
| 20260504181528 | 58 | 90 | 7.0 | 16.5 | 0.01 | 0.12 | 0.12 | 82 | 1012.5 |